Preview of NWS' New Version of Forecast
This preview is not operational and should not be used for support decisions.

Regional Weather Roundup (RWR)

Issued by National Weather Service (NWS)

                            
000
ASUS44 KMEG 212210
RWRTN 
TENNESSEE HOURLY STATE WEATHER ROUNDUP
NATIONAL WEATHER SERVICE MEMPHIS TN
500 PM CDT SAT SEP 21 2019

TNZ002-004-019-021-049-052-054-088>092-212300-
WEST TENNESSEE
  
CITY           SKY/WX    TMP DP  RH WIND       PRES   REMARKS
MEMPHIS INTL   FAIR      85  59  41 S10       30.12S                  
NWS MEMPHIS      N/A     91 N/A N/A MISG        N/A                   
JACKSON        FAIR      89  58  34 S8        30.14F                  
DYERSBURG      FAIR      88  60  38 SW5       30.13S                  
SOMERVILLE     CLOUDY    90  57  33 S8        30.12S                  
UNION CITY     MOSUNNY   90  57  33 S7        30.10F                  
BOLIVAR        MOSUNNY   86  57  37 SE5       30.13S                  
PARIS          SUNNY     88  57  35 SW10G18   30.13F                  
HUNTINGDON     SUNNY     88  59  37 S9        30.13S                  
LEXINGTON      SUNNY     88  55  33 S10G17    30.13F                  
SELMER         SUNNY     86  57  37 VRB5G13   30.14F                  
SAVANNAH       SUNNY     88  59  37 SW7       30.14S                  
$$

TNZ008-025-027-028-033-062-065-066-212300-
NORTH MIDDLE TENNESSEE
  
CITY           SKY/WX    TMP DP  RH WIND       PRES   REMARKS
NASHVILLE      FAIR      90  49  24 S10G16    30.16S                  
DICKSON        CLEAR     90  52  27 S9        30.15S                  
PORTLAND       SUNNY     88  50  27 S9        30.16S                  
CLARKSVILLE    FAIR      89  55  31 S8        30.14S                  
LEBANON        CLEAR     90  50  25 S9G15     30.14S                  
SMYRNA         FAIR      89  55  31 S7        30.16F                  
MURFREESBORO   CLEAR     88  52  29 S8        30.14F                  
COOKEVILLE     SUNNY     88  54  31 VRB5G13   30.18F                  
LIVINGSTON     CLEAR     84  54  34 VRB3      30.19S                  
CROSSVILLE     FAIR      81  54  39 SE7       30.24F                  
ROCKWOOD       CLEAR     82  55  39 CALM      30.23S                  
$$

TNZ061-075-076-078-094-096-097-212300-
SOUTH MIDDLE TENNESSEE
  
CITY           SKY/WX    TMP DP  RH WIND       PRES   REMARKS
LAWRENCEBURG   CLEAR     86  54  32 S8        30.17S                  
LEWISBURG      CLEAR     88  54  31 S6        30.15F                  
FAYETTEVILLE   SUNNY     86  54  32 S10       30.17S                  
TULLAHOMA      SUNNY     86  52  30 SW6G14    30.17S                  
WINCHESTER     SUNNY     88  48  25 S10       30.17F                  
MCMINNVILLE    SUNNY     88  52  29 CALM      30.18S                  
COLUMBIA       SUNNY     88  52  29 S6        30.14S                  
SHELBYVILLE    SUNNY     86  52  30 VRB5      30.16F                  
$$

TNZ017-018-042-046-047-212300-
NORTHEAST TENNESSEE
  
CITY           SKY/WX    TMP DP  RH WIND       PRES   REMARKS
TRI CITIES     FAIR      87  57  35 VRB3      30.22F                  
ELIZABETHTON   FAIR      86  59  39 CALM      30.22S                  
GREENEVILLE    CLEAR     84  57  39 CALM      30.22F                  
$$

TNZ012-013-036-069-073-074-212300-
CENTRAL EAST TENNESSEE
  
CITY           SKY/WX    TMP DP  RH WIND       PRES   REMARKS
KNOXVILLE      FAIR      86  56  35 NW6       30.18F                  
OAK RIDGE      FAIR      87  57  35 CALM      30.20F                  
DOWNTOWN KNOXV SUNNY     88  59  37 CALM      30.18F                  
GATLINBURG     CLOUDY    88  59  37 N5        30.18F                  
MORRISTOWN     SUNNY     84  57  39 CALM      30.20F                  
JACKSBORO      SUNNY     86  57  37 VRB3      30.23F                  
$$

TNZ083-085-099-212300-
SOUTHEAST TENNESSEE
  
CITY           SKY/WX    TMP DP  RH WIND       PRES   REMARKS
CHATTANOOGA    FAIR      88  55  32 VRB5      30.18F                  
$$

SKY/WX REPORTED AS FAIR MEANS FEW OR NO CLOUDS BELOW
12 THOUSAND FEET.